Location: Krasnoyarskiy Pitomnik
(51.1333°N, 71.6167°E)
Time: 10:35:09
(UTC+00:00)

Altair - Pass Details

Date: 20 April 2024
Orbit: 1501 x 1682 km, 47.2° (Epoch: 17 May)

Event Time Altitude Azimuth Distance (km) Brightness Sun altitude
Rises 11:31:50 0° 170° (S) 4,919 10.2 24.8°
Reaches altitude 10° 11:37:48 10° 144° (SE) 3,920 9.5 23.9°
Maximum altitude 11:41:15 12° 123° (ESE) 3,725 9.2 23.4°
Drops below altitude 10° 11:44:41 10° 102° (ESE) 3,893 9.2 22.9°
Sets 11:50:29 0° 76° (ENE) 4,847 9.5 22.0°
